Location: Lucerne Valley
(34.4439°N, 116.9669°E)
Time: 07:53:10
(UTC-07:00)

Vanguard 1 Rocket - Visible Passes

Search period start: 20 July 2018 00:00
Search period end: 30 July 2018 00:00
Orbit: 652 x 4225 km, 34.3° (Epoch: 18 July)

Date Brightness Start Highest point End Pass type
(mag) Time Alt. Az. Time Alt. Az. Time Alt. Az.
20 Jul 11.7 12:40:15 10° S 12:55:34 19° SE 13:09:11 10° E visible
21 Jul 11.4 13:49:57 10° SSW 14:12:09 37° SE 14:29:15 10° E visible
22 Jul 11.6 12:39:24 10° S 12:58:01 26° SE 13:14:29 10° E visible
23 Jul 11.6 11:32:35 10° SSE 11:44:10 15° SE 11:55:31 10° ESE visible
24 Jul 11.4 12:39:35 10° SSW 13:00:19 33° SE 13:18:49 10° E visible
25 Jul 11.5 11:30:39 10° S 11:46:26 21° SE 12:02:06 10° E visible
26 Jul 11.2 12:40:26 10° SSW 13:02:31 40° SE 13:22:37 10° E visible
27 Jul 11.3 11:33:20 14° S 11:48:32 27° SE 12:07:01 10° E visible
27 Jul 11.0 13:54:07 10° SW 14:19:21 60° SSE 14:39:30 10° ENE visible
28 Jul 11.4 10:26:12 12° SSE 10:35:10 15° SE 10:47:12 10° E visible
28 Jul 11.1 12:43:29 14° SSW 13:04:40 47° SE 13:26:03 10° ENE visible
29 Jul 11.1 11:36:18 20° S 11:50:32 34° SE 12:11:06 10° E visible
